User: anonymous   Login
Location: Unspecified
(0.0000°N, 0.0000°E)
Time: 23:57:55
(UTC+00:00)
Language:

TBA - TO BE ASSIGNED - Orbit

View from above orbital plane
View from above orbital plane
View from above satellite
View from above satellite

Ground track
Ground track

The orbit is defined by the following mean orbital elements,

1 67674U          26145.46758373 +.00000000 +00000-0 +12662-3 0 00004
2 67674  96.6530 218.6005 0010755 177.2457 182.8875 15.82801257    02
Epoch (UTC): 25 May 2026 11:13:19
Eccentricity: 0.0010755
inclination: 96.6530°
perigee height: 315 km
apogee height: 330 km
right ascension of ascending node: 218.6005°
argument of perigee: 177.2457°
revolutions per day: 15.82801257
mean anomaly at epoch: 182.8875°

The dashed part of the orbit path shows where the satellite is in the earth's shadow,  

DLR